Campo, CA

1:48 AM PDT on March 24, 2017 (GMT -0700)
Campo

Weather History for KCZZ - July, 2013

Change the Weather History Date:

Tuesday, July 16, 2013

  Actual Average Record
Temperature  
Mean Temperature 72 °F 73 °F  
Max Temperature 91 °F 94 °F 108 °F (1998)
Min Temperature 53 °F 52 °F 38 °F (1983)
Degree Days  
Heating Degree Days 0 0  
Month to date heating degree days 0 4  
Since 1 June heating degree days 28 60  
Since 1 July heating degree days 0 4  
Cooling Degree Days 7 8  
Month to date cooling degree days 190 115  
Year to date cooling degree days 324 237  
Since 1 June cooling degree days 297 207  
Growing Degree Days 22 (Base 50)    
Moisture  
Dew Point 35 °F    
Average Humidity 40    
Maximum Humidity 71    
Minimum Humidity 8    
Precipitation  
Precipitation 0.00 in 0.01 in 0.25 in (2006)
Month to date precipitation 0.00 0.10  
Year to date precipitation 4.78 10.25  
Since 1 July precipitation 0.00  
Snow  
Snow 0.00 in - - ()
Month to date snowfall 0.0  
Year to date snowfall 0.0  
Snow Depth 0.00 in    
Sea Level Pressure  
Sea Level Pressure 29.86 in    
Wind  
Wind Speed 9 mph (West)    
Max Wind Speed 22 mph    
Max Gust Speed 28 mph    
T = Trace of Precipitation, MM = Missing Value Source: NWS Daily Summary

Daily Weather History Graph

Daily Weather History Graph

Search for Another Location

Airport or City:

Trip Planner

Search our weather history database for the weather conditions in past years. The results will help you decide how hot, cold, wet, or windy it might be!

Date:

Astronomy

Jul. 16, 2013 Rise Set
Actual Time 5:49 AM PDT 7:53 PM PDT
Civil Twilight 5:22 AM PDT 8:21 PM PDT
Nautical Twilight 4:48 AM PDT 8:55 PM PDT
Astronomical Twilight 4:11 AM PDT 9:31 PM PDT
Moon 1:47 PM PDT (7/16) 12:12 AM PDT (7/16)
Length of Visible Light 14h 59m
Length of Day
14h 04m
First Quarter, 57% of the Moon is Illuminated
Jul 16
First Quarter
Jul 22
Full
Jul 29
Last Quarter
Aug 6
New
Aug 14
First Quarter

Hourly Weather History & Observations

Time (PDT) Temp. Dew Point Humidity Pressure Visibility Wind Dir Wind Speed Gust Speed Precip Events Conditions
12:52 AM 60.1 °F 46.0 °F 60% 29.81 in - Calm Calm - N/A   Unknown
1:52 AM 60.1 °F 46.0 °F 60% 29.81 in - Calm Calm - N/A   Unknown
2:52 AM 57.9 °F 45.0 °F 62% 29.80 in - NE 4.6 mph - N/A   Unknown
3:52 AM 54.0 °F 44.1 °F 69% 29.80 in - Calm Calm - N/A   Unknown
4:52 AM 57.0 °F 43.0 °F 59% 29.81 in - Calm Calm - N/A   Unknown
5:52 AM 55.9 °F 43.0 °F 62% 29.84 in - NE 5.8 mph - N/A   Unknown
6:52 AM 57.9 °F 43.0 °F 58% 29.85 in - NE 3.5 mph - N/A   Unknown
7:52 AM 68.0 °F 45.0 °F 43% 29.85 in - Calm Calm - N/A   Unknown
8:52 AM 82.0 °F 37.0 °F 20% 29.84 in - Variable 4.6 mph - N/A   Unknown
9:52 AM 86.0 °F 26.1 °F 11% 29.84 in - WNW 17.3 mph 21.9 mph N/A   Unknown
10:52 AM 87.1 °F 23.0 °F 10% 29.86 in - West 11.5 mph 23.0 mph N/A   Unknown
11:52 AM 89.1 °F 21.0 °F 8% 29.86 in - WSW 18.4 mph 25.3 mph N/A   Unknown
12:52 PM 89.1 °F 19.0 °F 8% 29.86 in - SW 17.3 mph 27.6 mph N/A   Unknown
1:52 PM 90.0 °F 25.0 °F 10% 29.86 in - SW 17.3 mph - N/A   Unknown
2:52 PM 90.0 °F 28.9 °F 11% 29.85 in - SW 15.0 mph 23.0 mph N/A   Unknown
3:52 PM 89.1 °F 33.1 °F 14% 29.85 in - SW 18.4 mph 23.0 mph N/A   Unknown
4:52 PM 87.1 °F 37.9 °F 18% 29.85 in - SW 17.3 mph 23.0 mph N/A   Unknown
5:52 PM 84.0 °F 37.0 °F 19% 29.85 in - SW 12.7 mph 21.9 mph N/A   Unknown
6:52 PM 81.0 °F 32.0 °F 17% 29.87 in - WSW 11.5 mph - N/A   Unknown
7:52 PM 75.0 °F 35.1 °F 23% 29.89 in - WSW 4.6 mph - N/A   Unknown
8:52 PM 70.0 °F 35.1 °F 28% 29.91 in - Calm Calm - N/A   Unknown
9:52 PM 63.0 °F 35.1 °F 35% 29.93 in - NNE 4.6 mph - N/A   Unknown
10:52 PM 60.1 °F 33.1 °F 36% 29.93 in - NE 3.5 mph - N/A   Unknown
11:52 PM 57.0 °F 33.1 °F 40% 29.93 in - NE 4.6 mph - N/A   Unknown